Location: New Canada
(47.1017°N, 68.5042°W)
Time: 13:19:11
(UTC+00:00)

QB50P2 - Visible Passes

Search period start: 27 March 2023 00:00
Search period end: 06 April 2023 00:00
Orbit: 584 x 598 km, 98.0° (Epoch: 26 March)

Date Brightness Start Highest point End Pass type
(mag) Time Alt. Az. Time Alt. Az. Time Alt. Az.
27 Mar ? 07:06:13 10° N 07:07:27 18° N 07:07:27 18° N visible
28 Mar ? 05:39:18 10° NE 05:39:25 11° NE 05:39:25 11° NE visible
28 Mar ? 07:14:40 10° N 07:15:59 18° NNW 07:15:59 18° NNW visible
29 Mar ? 05:47:28 10° NNE 05:47:56 13° NE 05:47:56 13° NE visible
29 Mar ? 07:23:07 10° N 07:24:30 18° NNW 07:24:30 18° NNW visible
30 Mar ? 05:55:39 10° NNE 05:56:27 15° NNE 05:56:27 15° NNE visible
30 Mar ? 07:31:36 10° NNW 07:33:00 17° NNW 07:33:00 17° NNW visible
31 Mar ? 06:03:51 10° NNE 06:04:56 17° NNE 06:04:56 17° NNE visible
31 Mar ? 07:40:07 10° NNW 07:41:30 16° NW 07:41:30 16° NW visible
01 Apr ? 06:12:04 10° NNE 06:13:25 20° NNE 06:13:25 20° NNE visible
01 Apr ? 07:48:40 10° NNW 07:49:58 14° NW 07:49:58 14° NW visible
02 Apr ? 06:20:18 10° NNE 06:21:53 22° NNE 06:21:53 22° NNE visible
02 Apr ? 07:57:20 10° NNW 07:58:27 13° NW 07:58:27 13° NW visible
03 Apr ? 06:28:32 10° NNE 06:30:20 25° NNE 06:30:20 25° NNE visible
03 Apr ? 08:06:09 10° NW 08:06:54 11° NW 08:06:54 11° NW visible
04 Apr ? 06:36:47 10° N 06:38:46 27° N 06:38:46 27° N visible
05 Apr ? 06:45:02 10° N 06:47:12 29° N 06:47:12 29° N visible
